Weather History for Wolf Creek Pass, CO

Change the Weather History Date:

Friday, October 19, 2012

  Actual Average (KALS) Record (KALS)
Temperature  
Mean Temperature 40 °F 42 °F  
Max Temperature 48 °F 61 °F 76 °F (2003)
Min Temperature 33 °F 23 °F 5 °F (1976)
Degree Days  
Heating Degree Days 24 23  
Month to date heating degree days 371  
Since 1 July heating degree days 802  
Cooling Degree Days 0 0  
Month to date cooling degree days 0  
Year to date cooling degree days 51  
Moisture  
Dew Point 11 °F    
Average Humidity 32    
Maximum Humidity 44    
Minimum Humidity 21    
Precipitation  
Precipitation 0.00 in 0.02 in 0.42 in (1990)
Month to date precipitation 0.42  
Year to date precipitation 6.28  
Snow  
Snow 0.00 in 0.10 in 0.20 in (1962)
Month to date snowfall 0.8  
Since 1 July snowfall 0.8  
Since 1 September snowfall 0.8  
Snow Depth -    
Sea Level Pressure  
Sea Level Pressure 30.39 in    
Wind  
Wind Speed 13 mph (SW)    
Max Wind Speed 24 mph    
Max Gust Speed 31 mph    
Visibility 10 miles    
Events      
T = Trace of Precipitation, MM = Missing Value Source: NWS Daily Summary

Daily Weather History Graph

Daily Weather History Graph

Search for Another Location

Airport:

Trip Planner

Search our weather history database for the weather conditions in past years. The results will help you decide how hot, cold, wet, or windy it might be!

Date:

Astronomy

Oct. 19, 2012 Rise Set
Actual Time 7:19 AM MDT 6:23 PM MDT
Civil Twilight 6:53 AM MDT 6:50 PM MDT
Nautical Twilight 6:22 AM MDT 7:20 PM MDT
Astronomical Twilight 5:52 AM MDT 7:51 PM MDT
Moon 12:01 PM MDT (10/19) 10:09 PM MDT (10/19)
Length of Visible Light 11h 57m
Length of Day
11h 04m
Waxing Crescent, 24% of the Moon is Illuminated
Oct 19
Waxing Crescent
Oct 21
First Quarter
Oct 29
Full
Nov 6
Last Quarter
Nov 13
New

Hourly Weather History & Observations

Time (MDT) Temp. Windchill Dew Point Humidity Pressure Visibility Wind Dir Wind Speed Gust Speed Precip Events Conditions
12:17 AM 33.8 °F 21.6 °F 12.2 °F 41% 30.41 in 10.0 mi NNE 23.0 mph 31.1 mph N/A   Clear
12:37 AM 33.8 °F 23.9 °F 10.4 °F 38% 30.41 in 10.0 mi NNE 15.0 mph 25.3 mph N/A   Clear
12:57 AM 35.6 °F 27.1 °F 10.4 °F 35% 30.42 in 10.0 mi North 12.7 mph 20.7 mph N/A   Clear
1:17 AM 35.6 °F 29.2 °F 8.6 °F 33% 30.42 in 10.0 mi North 8.1 mph 20.7 mph N/A   Clear
1:37 AM 35.6 °F 25.5 °F 8.6 °F 33% 30.42 in 10.0 mi NNE 17.3 mph 23.0 mph N/A   Clear
1:57 AM 35.6 °F 28.0 °F 8.6 °F 33% 30.42 in 10.0 mi North 10.4 mph 20.7 mph N/A   Clear
2:17 AM 35.6 °F 25.9 °F 8.6 °F 33% 30.42 in 10.0 mi North 16.1 mph 23.0 mph N/A   Clear
2:37 AM 33.8 °F - 8.6 °F 35% 30.42 in 10.0 mi Calm Calm - N/A   Clear
2:57 AM 35.6 °F - 8.6 °F 33% 30.42 in 10.0 mi Calm Calm - N/A   Clear
3:17 AM 35.6 °F 28.6 °F 10.4 °F 35% 30.42 in 10.0 mi WSW 9.2 mph - N/A   Clear
3:37 AM 33.8 °F 27.0 °F 10.4 °F 38% 30.42 in 10.0 mi NW 8.1 mph 17.3 mph N/A   Clear
3:57 AM 33.8 °F 26.4 °F 10.4 °F 38% 30.42 in 10.0 mi WNW 9.2 mph - N/A   Clear
4:17 AM 33.8 °F 27.7 °F 10.4 °F 38% 30.42 in 10.0 mi NW 6.9 mph - N/A   Clear
4:37 AM 33.8 °F 27.0 °F 8.6 °F 35% 30.42 in 10.0 mi West 8.1 mph - N/A   Clear
4:57 AM 33.8 °F 27.7 °F 8.6 °F 35% 30.42 in 10.0 mi WSW 6.9 mph 17.3 mph N/A   Clear
5:17 AM 35.6 °F 31.7 °F 6.8 °F 30% 30.42 in 10.0 mi WNW 4.6 mph - N/A   Clear
5:37 AM 35.6 °F 31.7 °F 6.8 °F 30% 30.42 in 10.0 mi WSW 4.6 mph - N/A   Clear
5:57 AM 35.6 °F 30.7 °F 8.6 °F 33% 30.42 in 10.0 mi South 5.8 mph - N/A   Clear
6:17 AM 33.8 °F 27.0 °F 8.6 °F 35% 30.42 in 10.0 mi SW 8.1 mph - N/A   Clear
6:37 AM 33.8 °F 25.8 °F 8.6 °F 35% 30.42 in 10.0 mi SSW 10.4 mph - N/A   Clear
6:57 AM 33.8 °F 28.6 °F 8.6 °F 35% 30.42 in 10.0 mi South 5.8 mph - N/A   Clear
7:17 AM 35.6 °F 29.9 °F 8.6 °F 33% 30.42 in 10.0 mi SSW 6.9 mph - N/A   Clear
7:37 AM 35.6 °F 29.9 °F 6.8 °F 30% 30.41 in 10.0 mi SW 6.9 mph - N/A   Clear
7:57 AM 37.4 °F 31.4 °F 5.0 °F 26% 30.41 in 10.0 mi SW 8.1 mph - N/A   Clear
8:17 AM 37.4 °F 32.8 °F 5.0 °F 26% 30.42 in 10.0 mi SSW 5.8 mph - N/A   Clear
8:37 AM 37.4 °F 32.1 °F 8.6 °F 30% 30.42 in 10.0 mi SSW 6.9 mph - N/A   Clear
8:57 AM 41.0 °F 35.8 °F 8.6 °F 26% 30.43 in 10.0 mi SW 8.1 mph - N/A   Clear
9:17 AM 42.8 °F 37.0 °F 5.0 °F 21% 30.43 in 10.0 mi SSW 10.4 mph - N/A   Clear
9:37 AM 41.0 °F 35.2 °F 10.4 °F 29% 30.44 in 10.0 mi SSW 9.2 mph - N/A   Clear
9:57 AM 42.8 °F 36.6 °F 10.4 °F 27% 30.44 in 10.0 mi SSW 11.5 mph 16.1 mph N/A   Clear
10:17 AM 42.8 °F 37.0 °F 10.4 °F 27% 30.44 in 10.0 mi SSW 10.4 mph - N/A   Clear
10:37 AM 42.8 °F 36.6 °F 12.2 °F 29% 30.43 in 10.0 mi SSW 11.5 mph 17.3 mph N/A   Clear
10:57 AM 44.6 °F 38.8 °F 12.2 °F 27% 30.43 in 10.0 mi SSW 11.5 mph 17.3 mph N/A   Clear
11:17 AM 44.6 °F 39.2 °F 12.2 °F 27% 30.42 in 10.0 mi SSW 10.4 mph 18.4 mph N/A   Clear
11:37 AM 44.6 °F 39.2 °F 14.0 °F 29% 30.42 in 10.0 mi SW 10.4 mph 18.4 mph N/A   Clear
11:57 AM 46.4 °F 42.9 °F 14.0 °F 27% 30.42 in 10.0 mi SSW 6.9 mph 16.1 mph N/A   Clear
12:18 PM 46.4 °F 40.7 °F 14.0 °F 27% 30.42 in 10.0 mi SW 12.7 mph 19.6 mph N/A   Clear
12:38 PM 46.4 °F 41.5 °F 14.0 °F 27% 30.41 in 10.0 mi SSW 10.4 mph 20.7 mph N/A   Clear
12:58 PM 46.4 °F 40.1 °F 14.0 °F 27% 30.40 in 10.0 mi SSW 15.0 mph 21.9 mph N/A   Clear
1:18 PM 44.6 °F 40.7 °F 12.2 °F 27% 30.40 in 10.0 mi SSW 6.9 mph 19.6 mph N/A   Clear
1:38 PM 46.4 °F 41.9 °F 14.0 °F 27% 30.39 in 10.0 mi SSW 9.2 mph 17.3 mph N/A   Clear
1:58 PM 46.4 °F 40.7 °F 12.2 °F 25% 30.39 in 10.0 mi SSW 12.7 mph 21.9 mph N/A   Clear
2:18 PM 46.4 °F 40.4 °F 12.2 °F 25% 30.38 in 10.0 mi SSW 13.8 mph 23.0 mph N/A   Clear
2:38 PM 48.2 °F - 14.0 °F 25% 30.37 in 10.0 mi North - - N/A   Clear
2:58 PM 46.4 °F 40.7 °F 14.0 °F 27% 30.37 in 10.0 mi SW 12.7 mph 21.9 mph N/A   Clear
3:18 PM 48.2 °F - 14.0 °F 25% 30.36 in 10.0 mi SSW 15.0 mph 25.3 mph N/A   Clear
3:38 PM 46.4 °F 40.4 °F 14.0 °F 27% 30.37 in 10.0 mi SSW 13.8 mph 26.5 mph N/A   Clear
3:58 PM 46.4 °F 41.5 °F 12.2 °F 25% 30.37 in 10.0 mi SW 10.4 mph 25.3 mph N/A   Clear
4:18 PM 46.4 °F 40.4 °F 12.2 °F 25% 30.36 in 10.0 mi SW 13.8 mph 27.6 mph N/A   Clear
4:38 PM 44.6 °F 38.8 °F 12.2 °F 27% 30.37 in 10.0 mi SW 11.5 mph 29.9 mph N/A   Clear
4:58 PM 44.6 °F 36.9 °F 12.2 °F 27% 30.37 in 10.0 mi SW 18.4 mph 25.3 mph N/A   Clear
5:18 PM 42.8 °F 35.4 °F 12.2 °F 29% 30.36 in 10.0 mi SW 15.0 mph 27.6 mph N/A   Clear
5:38 PM 42.8 °F 34.8 °F 12.2 °F 29% 30.36 in 10.0 mi SSW 17.3 mph 29.9 mph N/A   Clear
5:58 PM 41.0 °F 32.8 °F 14.0 °F 33% 30.35 in 10.0 mi SW 16.1 mph 26.5 mph N/A   Clear
6:18 PM 39.2 °F 29.8 °F 14.0 °F 36% 30.36 in 10.0 mi SW 18.4 mph 26.5 mph N/A   Clear
6:38 PM 37.4 °F 27.5 °F 14.0 °F 38% 30.36 in 10.0 mi SW 18.4 mph 25.3 mph N/A   Clear
6:58 PM 37.4 °F 27.5 °F 14.0 °F 38% 30.36 in 10.0 mi SW 18.4 mph 25.3 mph N/A   Clear
7:18 PM 37.4 °F 27.8 °F 14.0 °F 38% 30.36 in 10.0 mi SW 17.3 mph 25.3 mph N/A   Clear
7:38 PM 35.6 °F 24.8 °F 14.0 °F 41% 30.36 in 10.0 mi SW 19.6 mph 27.6 mph N/A   Clear
7:58 PM 35.6 °F 24.8 °F 14.0 °F 41% 30.36 in 10.0 mi SW 19.6 mph 27.6 mph N/A   Clear
8:18 PM 35.6 °F 24.0 °F 14.0 °F 41% 30.35 in 10.0 mi SW 23.0 mph 26.5 mph N/A   Clear
8:38 PM 35.6 °F 23.7 °F 12.2 °F 38% 30.35 in 10.0 mi SW 24.2 mph - N/A   Clear
8:58 PM 35.6 °F 24.2 °F 12.2 °F 38% 30.34 in 10.0 mi SW 21.9 mph - N/A   Clear
9:18 PM 35.6 °F 24.5 °F 12.2 °F 38% 30.34 in 10.0 mi WSW 20.7 mph - N/A   Clear
9:38 PM 35.6 °F 25.2 °F 12.2 °F 38% 30.34 in 10.0 mi SW 18.4 mph - N/A   Clear
9:58 PM 35.6 °F 26.2 °F 12.2 °F 38% 30.34 in 10.0 mi SW 15.0 mph - N/A   Clear
10:18 PM 33.8 °F 23.2 °F 14.0 °F 44% 30.34 in 10.0 mi SW 17.3 mph - N/A   Clear
10:38 PM 33.8 °F 23.5 °F 12.2 °F 41% 30.34 in 10.0 mi SW 16.1 mph - N/A   Clear
10:58 PM 35.6 °F 25.9 °F 12.2 °F 38% 30.34 in 10.0 mi SW 16.1 mph - N/A   Clear
11:18 PM 35.6 °F 27.1 °F 12.2 °F 38% 30.34 in 10.0 mi SW 12.7 mph - N/A   Clear
11:38 PM 33.8 °F 24.8 °F 12.2 °F 41% 30.34 in 10.0 mi SSW 12.7 mph - N/A   Clear
11:58 PM 33.8 °F 24.3 °F 12.2 °F 41% 30.34 in 10.0 mi SW 13.8 mph - N/A   Clear